This is the latest recevied weather packets stored in our database for station/object DM4XI-13. If no packets are shown the sender has not sent any weather packets the latest 10 day(s).
| Time | Temp. | Humidity | Pressure | Rain* | Wind** | Luminosity | Snow |
|---|---|---|---|---|---|---|---|
| 1778260950 | 16.11° C | 52% | 1014 hPa | 0 mm | 1.34 m/s, 303° | 61 W/m² | - |
| 1778260888 | 16.11° C | 52% | 1014 hPa | 0 mm | 0.89 m/s, 304° | 62 W/m² | - |
| 1778260827 | 16.11° C | 53% | 1014 hPa | 0 mm | 0.45 m/s, 261° | 64 W/m² | - |
| 1778260767 | 16.11° C | 52% | 1014.2 hPa | 0 mm | 0.45 m/s, 93° | 65 W/m² | - |
| 1778260705 | 16.11° C | 53% | 1014.1 hPa | 0 mm | 0.45 m/s, 267° | 66 W/m² | - |
| 1778260644 | 16.67° C | 52% | 1014.2 hPa | 0 mm | 0.89 m/s, 283° | 68 W/m² | - |
| 1778260583 | 16.67° C | 51% | 1014 hPa | 0 mm | 1.79 m/s, 22° | 70 W/m² | - |
| 1778260522 | 16.67° C | 52% | 1014.1 hPa | 0 mm | 0.89 m/s, 354° | 72 W/m² | - |
| 1778260461 | 16.67° C | 52% | 1014.1 hPa | 0 mm | 0.89 m/s, 300° | 73 W/m² | - |
| 1778260400 | 16.67° C | 52% | 1014.1 hPa | 0 mm | 1.34 m/s, 16° | 73 W/m² | - |
| 1778260340 | 16.67° C | 51% | 1013.9 hPa | 0 mm | 1.34 m/s, 334° | 73 W/m² | - |
| 1778260278 | 16.67° C | 52% | 1014 hPa | 0 mm | 0.89 m/s, 344° | 77 W/m² | - |
| 1778260217 | 16.67° C | 52% | 1013.9 hPa | 0 mm | 0.45 m/s, 270° | 79 W/m² | - |
| 1778260156 | 16.67° C | 51% | 1014.1 hPa | 0 mm | 0.45 m/s, 276° | 81 W/m² | - |
| 1778260095 | 16.67° C | 51% | 1014 hPa | 0 mm | 0.45 m/s, 243° | 82 W/m² | - |
| 1778260034 | 16.67° C | 51% | 1014.1 hPa | 0 mm | 0.89 m/s, 346° | 83 W/m² | - |
| 1778259973 | 16.67° C | 51% | 1014.1 hPa | 0 mm | 0.89 m/s, 277° | 83 W/m² | - |
| 1778259912 | 16.67° C | 51% | 1014 hPa | 0 mm | 0.89 m/s, 337° | 85 W/m² | - |
| 1778259852 | 16.67° C | 51% | 1014 hPa | 0 mm | 0.89 m/s, 316° | 73 W/m² | - |
| 1778259790 | 16.67° C | 51% | 1014.1 hPa | 0 mm | 0.45 m/s, 220° | 56 W/m² | - |
| 1778259729 | 16.67° C | 52% | 1014 hPa | 0 mm | 0.45 m/s, 221° | 87 W/m² | - |
| 1778259668 | 16.67° C | 52% | 1014.1 hPa | 0 mm | 0.45 m/s, 254° | 91 W/m² | - |
| 1778259608 | 16.67° C | 51% | 1014 hPa | 0 mm | 0.89 m/s, 314° | 93 W/m² | - |
| 1778259546 | 16.67° C | 51% | 1014 hPa | 0 mm | 0.45 m/s, 274° | 92 W/m² | - |
| 1778259485 | 16.67° C | 51% | 1013.9 hPa | 0 mm | 0.45 m/s, 270° | 93 W/m² | - |
* Rain latest hour (hover to see other rain measurements)
** Current wind speed in m/s (hover to see current wind gust speed)